Flag for U.S.A. Weather past 2 weeks in Olympia, Washington, U.S.A.

40 °F

Scattered clouds.

Feels Like: 40 °F
Forecast: 26 / 40 °F
Wind: No wind

Location: Olympia Airport

Current Time: Nov 24, 2015 at 4:35:15 PM

Latest Report: Nov 24, 2015 at 3:54 PM

Visibility: 10 mi

Pressure: 29.96 "Hg

Humidity: 89%

Dew point: 37 °F

Location of OlympiaLocation

Historic Weather in Olympia — Graph


Olympia temperature yesterday

Maximum temperature yesterday: 43 °F (at 12:54 PM)
Minimum temperature yesterday: 25 °F (at 4:54 AM)
Average temperature yesterday: 36 °F

Past Weeks' High & Low Weather Summary

High57 °F (Nov 17, 2:54 PM)100% (Nov 9, 8:01 PM)30.54 "Hg (Nov 9, 8:01 PM)
Low22 °F (Nov 21, 4:54 AM)44% (Nov 21, 2:54 PM)29.50 "Hg (Nov 14, 10:54 PM)
Average41 °F87%30.06 "Hg
* Reported Nov 9 1:03 PM — Nov 24 1:54 PM, Olympia, Weather by CustomWeather, © 2015

Note: Actual official high and low records may vary slightly from our data, if they occured in-between our weather recording intervals... More about our weather records


Olympia weather history for previous 24 hours

Time TempWeatherWind HumidityBarometerVisibility
1:54 PM
Tue, Nov 24
40 °FPartly sunny.5 mph86%29.91 "Hg10 mi
1:01 PM40 °FOvercast.5 mph83%29.90 "Hg10 mi
12:54 PM40 °FCloudy.No wind86%29.90 "Hg10 mi
11:54 AM38 °FCloudy.No wind93%29.89 "Hg10 mi
10:54 AM37 °FLight rain. Mostly cloudy.No wind93%29.89 "Hg8 mi
9:54 AM36 °FLight rain. Fog.3 mph92%29.86 "Hg6 mi
8:54 AM37 °FLight rain. Fog.3 mph93%29.83 "Hg5 mi
7:54 AM38 °FLight rain. Fog.No wind93%29.80 "Hg5 mi
6:54 AM38 °FLight rain. Overcast.No wind90%29.77 "Hg8 mi
5:54 AM38 °FLight rain. Fog.No wind97%29.74 "Hg6 mi
4:54 AM39 °FLight rain. Overcast.7 mph89%29.72 "Hg10 mi
3:54 AM40 °FOvercast.6 mph86%29.72 "Hg10 mi
2:54 AM40 °FOvercast.No wind93%29.72 "Hg10 mi
1:54 AM40 °FOvercast.3 mph93%29.72 "Hg10 mi
12:54 AM40 °FOvercast.6 mph93%29.72 "Hg10 mi
11:54 PM
Mon, Nov 23
40 °FOvercast.8 mph93%29.73 "Hg10 mi
10:54 PM40 °FMostly cloudy.6 mph93%29.73 "Hg8 mi
9:54 PM40 °FFog.7 mph97%29.74 "Hg6 mi
8:54 PM40 °FFog.5 mph97%29.75 "Hg5 mi
7:54 PM40 °FLight rain. Fog.8 mph93%29.76 "Hg6 mi
6:54 PM40 °FLight rain. Overcast.3 mph93%29.78 "Hg7 mi
5:54 PM40 °FLight rain. Fog.5 mph93%29.79 "Hg6 mi
4:54 PM40 °FLight rain. Mostly cloudy.3 mph89%29.81 "Hg7 mi
Weather by CustomWeather, © 2015

See weather overviewHow to use our weather pages